Regional Weather Roundup
Issued by NWS

Home | Current Version | Previous Version | Text Only | Print | Product List | Glossary On
Versions: 1 2 3 4 5 6 7 8 9 10 11 12 13 14 15 16 17 18 19 20 21 22 23 24 25 26 27 28 29 30 31 32 33 34 35 36 37 38 39 40 41 42 43 44 45 46 47 48 49 50
000
ASUS44 KOUN 231600
RWROK

WEATHER ROUNDUP FOR OKLAHOMA
NATIONAL WEATHER SERVICE NORMAN OK
1000 AM CST SUN NOV 23 2014

NOTE: "FAIR" INDICATES FEW OR NO CLOUDS BELOW 12,000 FEET WITH NO
      SIGNIFICANT WEATHER AND/OR OBSTRUCTIONS TO VISIBILITY.

OKZ001>007-009>012-014-015-017-231700-
NORTHWEST OKLAHOMA AND THE PANHANDLE

CITY           SKY/WX    TMP DP  RH WIND       PRES   REMARKS
GAGE           PTSUNNY   48  44  86 N21G30    29.46R
ENID/WOODRING  PTSUNNY   55  52  88 SW9       29.39F
$$

OKZ016-021>023-033>039-044-045-231700-
SOUTHWEST OKLAHOMA

CITY           SKY/WX    TMP DP  RH WIND       PRES   REMARKS
LAWTON/REGL    MOSUNNY   55  49  80 SW8       29.42F
LAWTON/FT SILL PTSUNNY   54  54 100 SW8       29.40F
FREDERICK      SUNNY     55  47  74 SW17      29.40F
CLINTON        SUNNY     52  46  80 W13       29.41F
HOBART         SUNNY     53  46  77 W12       29.40F
ALTUS AFB      SUNNY     53  47  80 W10       29.43F
$$

OKZ018>020-024>031-231700-
CENTRAL OKLAHOMA

CITY           SKY/WX    TMP DP  RH WIND       PRES   REMARKS
OKLAHOMA CITY  PTSUNNY   57  51  80 S18       29.40F
OKC/WILEY POST CLOUDY    57  51  80 S20       29.40F
OKC/TINKER AFB CLOUDY    57  52  82 S16       29.41F
STILLWATER     CLOUDY    59  52  77 S9        29.42F
GUTHRIE        CLOUDY    58  52  80 S12G22    29.40F
$$

OKZ008-013-054>072-231700-
NORTHEAST OKLAHOMA

CITY           SKY/WX    TMP DP  RH WIND       PRES   REMARKS
TULSA          CLOUDY    60  57  89 S14G23    29.44F
TULSA/JONES    CLOUDY    60  56  86 S9        29.45F
PONCA CITY     CLOUDY    58  51  78 S9        29.41F
BARTLESVILLE   CLOUDY    59  54  83 S8        29.46F
MUSKOGEE       CLOUDY    59  56  89 SE9       29.48F
$$

OKZ032-040>043-046>053-073>077-231700-
SOUTH CENTRAL/SOUTHEAST OKLAHOMA

CITY           SKY/WX    TMP DP  RH WIND       PRES   REMARKS
MCALESTER      CLOUDY    62  57  83 S10       29.48F
$$




USA.gov is the U.S. government's official web portal to all federal, state and local government web resources and services.